This is the latest recevied weather packets stored in our database for station/object KD8UTJ. If no packets are shown the sender has not sent any weather packets the latest 1 day(s).
| Time | Temp. | Humidity | Pressure | Rain* | Wind** | Luminosity | Snow |
|---|---|---|---|---|---|---|---|
| 1778013511 | 26.11° C | 56% | 1017.8 hPa | 0 mm | 1.79 m/s, 97° | 411 W/m² | - |
| 1778013207 | 26.11° C | 54% | 1017.8 hPa | 0 mm | 2.68 m/s, 96° | 474 W/m² | - |
| 1778012904 | 26.67° C | 55% | 1017.8 hPa | 0 mm | 3.13 m/s, 90° | 472 W/m² | - |
| 1778012600 | 26.67° C | 55% | 1017.9 hPa | 0 mm | 1.79 m/s, 100° | 467 W/m² | - |
| 1778012297 | 26.67° C | 55% | 1017.8 hPa | 0 mm | 1.79 m/s, 56° | 517 W/m² | - |
| 1778011994 | 26.67° C | 55% | 1017.7 hPa | 0 mm | 4.02 m/s, 110° | 537 W/m² | - |
| 1778011693 | 26.11° C | 56% | 1017.9 hPa | 0 mm | 0 m/s | 555 W/m² | - |
| 1778011389 | 26.11° C | 54% | 1018 hPa | 0 mm | 2.68 m/s, 107° | 593 W/m² | - |
| 1778011084 | 26.11° C | 59% | 1017.9 hPa | 0 mm | 1.79 m/s, 20° | 628 W/m² | - |
| 1778010782 | 26.67° C | 54% | 1018 hPa | 0 mm | 2.24 m/s, 154° | 572 W/m² | - |
| 1778010479 | 26.11° C | 57% | 1018 hPa | 0 mm | 2.68 m/s, 103° | 624 W/m² | - |
| 1778010176 | 26.67° C | 56% | 1018.2 hPa | 0 mm | 1.79 m/s, 52° | 605 W/m² | - |
| 1778009876 | 26.67° C | 53% | 1018.1 hPa | 0 mm | 1.34 m/s, 51° | 624 W/m² | - |
| 1778009574 | 26.67° C | 55% | 1018.2 hPa | 0 mm | 2.24 m/s, 48° | 622 W/m² | - |
| 1778009273 | 26.67° C | 54% | 1018.4 hPa | 0 mm | 3.13 m/s, 120° | 682 W/m² | - |
| 1778008970 | 26.11° C | 55% | 1018.4 hPa | 0 mm | 2.68 m/s, 74° | 703 W/m² | - |
| 1778008668 | 26.67° C | 57% | 1018.4 hPa | 0 mm | 1.79 m/s, 126° | 703 W/m² | - |
| 1778008366 | 26.11° C | 58% | 1018.4 hPa | 0 mm | 3.58 m/s, 80° | 708 W/m² | - |
| 1778008062 | 26.11° C | 54% | 1018.4 hPa | 0 mm | 3.13 m/s, 81° | 718 W/m² | - |
| 1778007757 | 26.11° C | 54% | 1018.3 hPa | 0 mm | 3.13 m/s, 102° | 723 W/m² | - |
| 1778007454 | 26.11° C | 52% | 1018.4 hPa | 0 mm | 1.79 m/s, 36° | 735 W/m² | - |
| 1778007150 | 26.11° C | 59% | 1018.5 hPa | 0 mm | 2.24 m/s, 126° | 739 W/m² | - |
| 1778006846 | 26.67° C | 57% | 1018.6 hPa | 0 mm | 2.24 m/s, 111° | 756 W/m² | - |
| 1778006544 | 26.11° C | 57% | 1018.5 hPa | 0 mm | 3.13 m/s, 100° | 759 W/m² | - |
| 1778006240 | 26.11° C | 60% | 1018.6 hPa | 0 mm | 1.79 m/s, 64° | 764 W/m² | - |
* Rain latest hour (hover to see other rain measurements)
** Current wind speed in m/s (hover to see current wind gust speed)